Regional Weather Roundup
Issued by NWS

Home | Current Version | Previous Version | Text Only | Print | Product List | Glossary On
Versions: 1 2 3 4 5 6 7 8 9 10 11 12 13 14 15 16 17 18 19 20 21 22 23 24 25 26 27 28 29 30 31 32 33 34 35 36 37 38 39 40 41 42 43 44 45 46 47 48 49 50
000
ASMX46 KSGX 180511
RWRMX

MEXICAN WEATHER ROUNDUP
NATIONAL WEATHER SERVICE SAN DIEGO CA
900 PM PST SAT FEB 17 2018

BAJA CALIFORNIA

CITY           SKY/WX    TMP DP  RH WIND       PRES   REMARKS
ENSENADA NW      N/A     60  32  34 CALM      29.98S
LA PAZ         PTCLDY    68  57  68 CALM      30.03S
MEXICALI       PTCLDY    55  27  33 S3        30.02F
TIJUANA        PTCLDY    57  45  62 CALM      30.08S

NORTHWESTERN MEXICO

CITY           SKY/WX    TMP DP  RH WIND       PRES   REMARKS
CULIACAN       MOCLDY    72  64  78 W6        29.94R
HERMOSILLO     MOCLDY    66  59  77 CALM      30.03F
LOS MOCHIS     PTCLDY    66  59  77 NW10      29.99F

NORTHEASTERN MEXICO

CITY           SKY/WX    TMP DP  RH WIND       PRES   REMARKS
MONCLOVA         N/A    N/A N/A N/A MISG        N/A
MONTERREY      MOCLDY    68  61  77 N5        30.06R
REYNOSA          N/A    N/A N/A N/A MISG        N/A
SALTILLO       CLEAR     61  41  48 N7        30.25S
VICTORIA         N/A    N/A N/A N/A MISG        N/A

WESTERN MEXICO

CITY           SKY/WX    TMP DP  RH WIND       PRES   REMARKS
AGUASCALIENTES MOCLDY    66  30  26 NE9       30.23S
COLIMA           N/A    N/A N/A N/A MISG        N/A
GUADALAJARA    PTCLDY    68  50  52 W13       30.16S
MAZATLAN       PTCLDY    68  66  94 CALM      29.94F
PTO. VALLARTA  MOCLDY    72  72 100 CALM      29.97S
TEPIC            N/A    N/A N/A N/A MISG        N/A
URUAPAN          N/A    N/A N/A N/A MISG        N/A
ZACATECAS      CLEAR     63  34  34 SE7       30.28S

CENTRAL MEXICO

CITY           SKY/WX    TMP DP  RH WIND       PRES   REMARKS
CUERNAVACA       N/A    N/A N/A N/A MISG        N/A
LEON           PTCLDY    68  21  17 N13       30.26F
MEXICO CITY    CLEAR     63  34  34 N7        30.33F
MORELIA        PTCLDY    59  45  58 CALM      30.23R
POZA RICA        N/A    N/A N/A N/A MISG        N/A
S. LUIS POTOSI   N/A     54  37  54 E7        30.26S
TAMPICO        MOCLDY    72  72 100 MISG      30.06F
TOLUCA         CLEAR     48  37  66 CALM      30.38F
VERACRUZ       PTCLDY    72  70  94 W3        30.07R

SOUTHERN MEXICO

CITY           SKY/WX    TMP DP  RH WIND       PRES   REMARKS
ACAPULCO       PTCLDY    79  73  83 W3        29.95R
B. DE HUATULCO   N/A    N/A N/A N/A MISG        N/A
MINATITLAN       N/A    N/A N/A N/A MISG        N/A
PTO. ESCONDIDO   N/A    N/A N/A N/A MISG        N/A
TAPACHULA      MOCLDY    73  70  88 CALM      29.95S
TUX. GUTIERREZ CLEAR     72  64  78 CALM      30.04R

YUCATAN PENINSULA

CITY           SKY/WX    TMP DP  RH WIND       PRES   REMARKS
CAMPECHE       CLEAR     77  66  69 E12       30.04S
CHETUMAL       CLEAR     77  72  83 SE6       30.00F
C. DEL CARMEN  CLEAR     77  72  83 E7        30.06S
COZUMEL        CLEAR     72  70  94 E5        30.12S
MERIDA         CLEAR     75  63  64 E13       30.10S

$$




USA.gov is the U.S. government's official web portal to all federal, state and local government web resources and services.